Regional Weather Roundup
Issued by NWS Sioux Falls, SD

Home | Current Version | Previous Version | Text Only | Print | Product List | Glossary Off
Versions: 1 2 3 4 5 6 7 8 9 10 11 12 13 14 15 16 17 18 19 20 21 22 23 24 25 26 27 28 29 30 31 32 33 34 35 36 37 38 39 40 41 42 43 44 45 46 47 48 49 50

000
ASUS43 KFSD 250810
RWRFSD

WEATHER ROUNDUP FOR SE SOUTH DAKOTA/SW MINNESOTA/NW IOWA
NATIONAL WEATHER SERVICE SIOUX FALLS SD
300 AM CDT SAT MAR 25 2017

NOTE: "FAIR" INDICATES FEW OR NO CLOUDS BELOW 12,000 FEET WITH NO
SIGNIFICANT WEATHER AND OR OBSTRUCTIONS TO VISIBILITY.


SDZ038>040-050-052>070-250900-
SOUTHEAST SOUTH DAKOTA

CITY           SKY/WX    TMP DP  RH WIND       PRES   REMARKS
BROOKINGS      CLOUDY    33  30  88 NE13      30.11F WCI  24
CHAMBERLAIN    CLOUDY    36  35  96 NE3       30.12F
HURON          CLOUDY    38  33  82 NE6       30.14F
MADISON        CLOUDY    32  32 100 E17       30.11S WCI  21
MITCHELL       CLOUDY    37  33  85 NE12      30.14S
SIOUX FALLS    CLOUDY    36  34  92 NE16      30.10F FOG
WINNER         FOG       27  25  92 SE5       30.10F VSB 1/4 WCI  22
YANKTON        CLOUDY    36  34  93 N9        30.11S
$$

MNZ071-072-080-081-089-090-097-098-250900-
SOUTHWEST MINNESOTA

CITY           SKY/WX    TMP DP  RH WIND       PRES   REMARKS
FAIRMONT       CLOUDY    38  35  89 NE15      30.08F
JACKSON        CLOUDY    36  36 100 NE16G22   30.07F FOG
LUVERNE        CLOUDY    34  32  93 NE16G23   30.09F FOG     WCI  23
MARSHALL       CLOUDY    35  32  88 E14       30.14F WCI  26
MONTEVIDEO     CLOUDY    36  34  93 E8        30.18F
PIPESTONE      CLOUDY    34  30  86 E9G18     30.09S FOG     WCI  26
REDWOOD FALLS  CLOUDY    37  31  78 NE9       30.15F
TRACY          CLOUDY    36  34  94 NE8       30.13F
WINDOM         CLOUDY    36  36 100 N15G23    30.09F
WORTHINGTON    CLOUDY    35  34  96 NE21      30.07F FOG     WCI  24
$$

IAZ001>003-012>014-020>022-031-032-NEZ013-014-SDZ071-250900-
NORTHWEST IOWA

CITY           SKY/WX    TMP DP  RH WIND       PRES   REMARKS
CHEROKEE       CLOUDY    38  38 100 NE18G24   30.01F FOG
ESTHERVILLE    CLOUDY    37  37 100 NE20G26   30.05F FOG
LE MARS        CLOUDY    39  37  93 NE13G21   30.05S FOG
ORANGE CITY    CLOUDY    37  37 100 NE9       30.05S FOG
SHELDON        CLOUDY    37  37 100 NE17G24   30.04R FOG
SIOUX CITY     CLOUDY    39  38  96 N12       30.03F FOG
SPENCER        CLOUDY    38  37  97 NE23G29   30.04S FOG
STORM LAKE     CLOUDY    37  37 100 NE23G30   29.99F FOG
$$

ABBREVIATIONS USED IN REMARKS
   TC - TEMPERATURE IN CELSIUS
  WCI - WIND CHILL INDEX
   HX - HEAT INDEX
  VSB - VISIBILITY





USA.gov is the U.S. government's official web portal to all federal, state and local government web resources and services.